TimePST,TemperatureF,Dew PointF,Humidity,Sea Level PressureIn,VisibilityMPH,Wind Direction,Wind SpeedMPH,Gust SpeedMPH,PrecipitationIn,Events,Conditions,WindDirDegrees,DateUTC
12:53 AM,34.0,26.1,73,30.30,10.0,West,11.5,-,N/A,,Partly Cloudy,280,2013-02-24 08:53:00
1:53 AM,36.0,26.1,67,30.30,10.0,WNW,11.5,-,N/A,,Scattered Clouds,290,2013-02-24 09:53:00
2:53 AM,35.1,26.1,70,30.29,10.0,WNW,9.2,-,N/A,,Overcast,300,2013-02-24 10:53:00
3:53 AM,37.0,26.1,65,30.29,10.0,WNW,16.1,23.0,N/A,,Overcast,290,2013-02-24 11:53:00
4:53 AM,37.0,26.1,65,30.29,10.0,WNW,17.3,-,N/A,,Overcast,290,2013-02-24 12:53:00
5:53 AM,37.9,26.1,62,30.30,10.0,WNW,16.1,-,N/A,,Overcast,290,2013-02-24 13:53:00
6:53 AM,37.9,26.1,62,30.28,10.0,WNW,10.4,-,N/A,,Overcast,300,2013-02-24 14:53:00
7:53 AM,39.0,27.0,62,30.30,10.0,WNW,12.7,-,N/A,,Partly Cloudy,300,2013-02-24 15:53:00
8:53 AM,39.9,27.0,60,30.30,10.0,WNW,10.4,-,N/A,,Scattered Clouds,300,2013-02-24 16:53:00
9:53 AM,39.9,27.0,60,30.30,10.0,WNW,12.7,-,N/A,,Overcast,300,2013-02-24 17:53:00
10:53 AM,41.0,27.0,57,30.29,10.0,WNW,15.0,-,N/A,,Overcast,290,2013-02-24 18:53:00
11:53 AM,42.1,27.0,55,30.29,10.0,WNW,16.1,-,N/A,,Overcast,290,2013-02-24 19:53:00
12:53 PM,43.0,28.0,56,30.26,10.0,NW,13.8,-,N/A,,Overcast,310,2013-02-24 20:53:00
1:53 PM,44.1,28.0,53,30.24,10.0,NW,9.2,-,N/A,,Scattered Clouds,310,2013-02-24 21:53:00
2:53 PM,45.0,28.0,52,30.23,10.0,Variable,3.5,-,N/A,,Partly Cloudy,0,2013-02-24 22:53:00
3:53 PM,46.9,28.0,48,30.20,10.0,Calm,Calm,-,N/A,,Clear,0,2013-02-24 23:53:00
4:53 PM,43.0,27.0,53,30.19,10.0,SSE,4.6,-,N/A,,Clear,160,2013-02-25 00:53:00
5:53 PM,39.9,26.1,58,30.18,10.0,SSE,3.5,-,N/A,,Partly Cloudy,150,2013-02-25 01:53:00
6:53 PM,34.0,24.1,67,30.15,10.0,East,4.6,-,N/A,,Clear,80,2013-02-25 02:53:00
7:53 PM,33.1,24.1,70,30.14,10.0,East,6.9,-,N/A,,Mostly Cloudy,90,2013-02-25 03:53:00
8:53 PM,36.0,25.0,64,30.09,10.0,East,8.1,-,N/A,,Partly Cloudy,80,2013-02-25 04:53:00
9:53 PM,36.0,25.0,64,30.06,10.0,ENE,8.1,-,N/A,,Mostly Cloudy,70,2013-02-25 05:53:00
10:53 PM,34.0,25.0,70,30.02,10.0,NE,5.8,-,N/A,,Clear,50,2013-02-25 06:53:00
11:53 PM,33.1,24.1,70,30.01,10.0,WNW,3.5,-,N/A,,Mostly Cloudy,300,2013-02-25 07:53:00